User: anonymous   Login
Location: Unspecified
(0.0000°N, 0.0000°E)
Time: 19:52:29
(UTC+00:00)
Language:

Kosmos-1506 - Orbit

View from above orbital plane
View from above orbital plane
View from above satellite
View from above satellite

Ground track
Ground track

The orbit data is extracted from the following two-line orbital elements,

1 14450U 83108A   17268.96088068 +.00000017 +00000-0 +20721-5 0  9998
2 14450 082.9283 121.3259 0041594 267.5194 203.5692 13.76222961519379
Epoch (UTC): 25 September 2017 23:03:40
Eccentricity: 0.0041594
inclination: 82.9283°
perigee height: 947 km
apogee height: 1008 km
right ascension of ascending node: 121.3259°
argument of perigee: 267.5194°
revolutions per day: 13.76222961
mean anomaly at epoch: 203.5692°
orbit number at epoch: 51937

The dashed part of the orbit path shows where the satellite is in the earth's shadow,  

DLR